Tracking 31027 objects as of 19-Jul-2025
HD Live streaming from Space Station
objects crossing your sky now

STARLINK-31587

Track STARLINK-31587 now!
10-day predictions
STARLINK-31587 is classified as:


NORAD ID: 59570
Int'l Code: 2024-076G
Perigee: 489.4 km
Apogee: 490.9 km
Inclination: 43.0 °
Period: 94.3 minutes
Semi major axis: 6861 km
RCS: Unknown
Launch date: April 23, 2024
Source: United States (US)
Launch site: AIR FORCE EASTERN TEST RANGE (AFETR)
Your satellite tracking list
NOAA 16 DEB
Track 1 satellite(s)




NASA's NSSDC Master Catalog

Two Line Element Set (TLE):
1 59570U 24076G   25199.16736494 -.00007875  00000-0 -27677-3 0  9992
2 59570  43.0020 253.6209 0001112 276.5076  83.5649 15.27601008 70655
Source of the keplerian elements: AFSPC